This demonstration page uses our WeatherBlox Daily Observations layout. Learn more.

Hourly Observations for May 30, 2019

Temp ( °F °C ) Dew Point ( °F °C ) Humidity (%) Winds ( mph kmh ) Pressure ( in mb ) Visibility ( mi km ) Precip ( " mm )
12:15 am 00:15 Clear 75 24 64 18 69 69 Calm 29.8 1009 10 16.09344 0 0
12:35 am 00:35 Partly Cloudy 73 23 64 18 74 74 Calm 29.8 1009 10 16.09344 0 0
12:55 am 00:55 Cloudy 73 23 66 19 78 78 Calm 29.8 1009 10 16.09344 0 0
1:15 am 01:15 Cloudy 73 23 66 19 78 78 Calm 29.8 1009 10 16.09344 0 0
1:35 am 01:35 Cloudy 73 23 66 19 78 78 Calm 29.8 1009 10 16.09344 0 0
1:55 am 01:55 Partly Cloudy 72 22 66 19 83 83 Calm 29.8 1009 10 16.09344 0 0
2:15 am 02:15 Mostly Cloudy 73 23 64 18 74 74 Calm 29.8 1009 10 16.09344 0 0
2:35 am 02:35 Partly Cloudy 73 23 64 18 74 74 SSW 3 6 29.8 1009 10 16.09344 0 0
2:55 am 02:55 Partly Cloudy 73 23 64 18 74 74 SSW 3 6 29.8 1009 10 16.09344 0 0
3:15 am 03:15 Clear 72 22 64 18 78 78 S 3 6 29.8 1009 10 16.09344 0 0
3:35 am 03:35 Clear 72 22 64 18 78 78 Calm 29.8 1009 10 16.09344 0 0
3:55 am 03:55 Clear 70 21 64 18 83 83 W 5 7 29.8 1009 10 16.09344 0 0
4:15 am 04:15 Clear 68 20 66 19 94 94 Calm 29.8 1009 10 16.09344 0 0
4:35 am 04:35 Clear 70 21 64 18 83 83 Calm 29.8 1009 10 16.09344 0 0
4:55 am 04:55 Clear 70 21 64 18 83 83 WSW 5 7 29.8 1009 10 16.09344 0 0
5:15 am 05:15 Clear 70 21 63 17 78 78 W 6 9 29.8 1009 10 16.09344 0 0
5:35 am 05:35 Clear 68 20 63 17 83 83 WNW 6 9 29.8 1009 10 16.09344 0 0
5:55 am 05:55 Sunny 68 20 63 17 83 83 WNW 6 9 29.8 1009 10 16.09344 0 0
6:15 am 06:15 Sunny 68 20 63 17 83 83 NW 5 7 29.83 1010 10 16.09344 0 0
6:35 am 06:35 Sunny 70 21 64 18 83 83 NW 5 7 29.83 1010 10 16.09344 0 0
6:55 am 06:55 Sunny 72 22 64 18 78 78 WNW 7 11 29.83 1010 10 16.09344 0 0
7:15 am 07:15 Partly Cloudy 73 23 64 18 74 74 NW 8 13 29.83 1010 10 16.09344 0 0
7:35 am 07:35 Sunny 73 23 64 18 74 74 WNW 5 7 29.83 1010 10 16.09344 0 0
7:55 am 07:55 Sunny 77 25 64 18 65 65 S 5 7 29.83 1010 10 16.09344 0 0
8:10 am 08:10 Sunny 75 24 64 18 69 69 S 6 9 29.83 1010 10 16.09344 0 0
8:35 am 08:35 Sunny 77 25 66 19 69 69 S 6 9 29.83 1010 10 16.09344 0 0
8:55 am 08:55 Sunny 77 25 66 19 69 69 Calm 29.83 1010 10 16.09344 0 0
9:15 am 09:15 Sunny 79 26 68 20 70 70 Calm 29.83 1010 10 16.09344 0 0
9:35 am 09:35 Sunny 79 26 68 20 70 70 WNW 3 6 29.83 1010 10 16.09344 0 0
9:55 am 09:55 Sunny 81 27 68 20 66 66 S 3 6 29.83 1010 10 16.09344 0 0
10:15 am 10:15 Partly Cloudy 82 28 68 20 62 62 SSW 3 6 29.83 1010 10 16.09344 0 0
10:35 am 10:35 Partly Cloudy 82 28 68 20 62 62 WSW 3 6 29.83 1010 10 16.09344 0 0
10:55 am 10:55 Sunny 82 28 68 20 62 62 SW 5 7 29.8 1009 10 16.09344 0 0
11:15 am 11:15 Sunny 82 28 70 21 66 66 S 6 9 29.8 1009 10 16.09344 0 0
11:35 am 11:35 Sunny 82 28 70 21 66 66 S 6 9 29.8 1009 10 16.09344 0 0
11:55 am 11:55 Sunny 84 29 68 20 58 58 SSW 7 11 29.77 1008 10 16.09344 0 0
12:15 pm 12:15 Sunny 86 30 68 20 55 55 S 8 13 29.77 1008 10 16.09344 0 0
12:35 pm 12:35 Sunny 86 30 70 21 59 59 SSW 9 15 29.77 1008 10 16.09344 0 0
12:55 pm 12:55 Partly Cloudy 88 31 68 20 52 52 WSW 7 11 29.74 1007 10 16.09344 0 0
1:15 pm 13:15 Sunny 88 31 70 21 55 55 SW 8 13 29.74 1007 10 16.09344 0 0
1:35 pm 13:35 Sunny 88 31 68 20 52 52 W 12 19 29.74 1007 10 16.09344 0 0
1:55 pm 13:55 Mostly Cloudy 86 30 68 20 55 55 WSW 13 20 29.74 1007 10 16.09344 0 0
2:15 pm 14:15 Cloudy 86 30 70 21 59 59 WSW 9 15 29.71 1006 10 16.09344 0 0
2:35 pm 14:35 Partly Cloudy with Nearby Thunderstorms 86 30 70 21 59 59 WSW 13 20 29.71 1006 10 16.09344 0 0
2:55 pm 14:55 Partly Cloudy with Thunderstorms 82 28 70 21 66 66 WSW 15 24 29.74 1007 10 16.09344 0 0
3:15 pm 15:15 Cloudy 79 26 70 21 74 74 WSW 14 22 29.77 1008 10 16.09344 0 0
3:35 pm 15:35 Mostly Cloudy 77 25 70 21 79 79 WSW 9 15 29.77 1008 10 16.09344 0 0
3:55 pm 15:55 Partly Cloudy with Nearby Thunderstorms 77 25 70 21 79 79 WSW 3 6 29.74 1007 10 16.09344 0 0
4:15 pm 16:15 Sunny 77 25 70 21 79 79 W 5 7 29.74 1007 10 16.09344 0 0
4:35 pm 16:35 Sunny 77 25 72 22 83 83 WSW 9 15 29.77 1008 10 16.09344 0 0
4:55 pm 16:55 Sunny 77 25 72 22 83 83 WSW 6 9 29.74 1007 10 16.09344 0 0
5:15 pm 17:15 Sunny 77 25 72 22 83 83 W 6 9 29.74 1007 10 16.09344 0 0
5:35 pm 17:35 Sunny 79 26 72 22 79 79 SW 6 9 29.74 1007 10 16.09344 0 0
5:55 pm 17:55 Partly Cloudy 79 26 70 21 74 74 WSW 7 11 29.74 1007 10 16.09344 0 0
6:15 pm 18:15 Mostly Cloudy 79 26 70 21 74 74 W 6 9 29.74 1007 10 16.09344 0 0
6:35 pm 18:35 Cloudy 79 26 68 20 70 70 SW 6 9 29.74 1007 10 16.09344 0 0
6:55 pm 18:55 Cloudy 79 26 68 20 70 70 W 5 7 29.74 1007 10 16.09344 0 0
7:15 pm 19:15 Cloudy 77 25 70 21 79 79 W 7 11 29.77 1008 10 16.09344 0 0
7:35 pm 19:35 Cloudy 73 23 70 21 89 89 W 10 17 29.77 1008 4 6.437376 0 0
7:55 pm 19:55 Cloudy 72 22 70 21 94 94 WNW 7 11 29.77 1008 10 16.09344 0 0
8:15 pm 20:15 Cloudy 72 22 70 21 94 94 WNW 8 13 29.77 1008 10 16.09344 0 0
8:35 pm 20:35 Cloudy 72 22 70 21 94 94 W 10 17 29.77 1008 10 16.09344 0 0
8:55 pm 20:55 Cloudy 72 22 70 21 94 94 W 9 15 29.77 1008 10 16.09344 0 0
9:15 pm 21:15 Mostly Cloudy 72 22 70 21 94 94 W 7 11 29.77 1008 10 16.09344 0 0
9:35 pm 21:35 Partly Cloudy 72 22 68 20 88 88 W 9 15 29.77 1008 10 16.09344 0 0
9:55 pm 21:55 Partly Cloudy 70 21 68 20 94 94 W 7 11 29.77 1008 10 16.09344 0 0
10:15 pm 22:15 Clear 70 21 68 20 94 94 WNW 13 20 29.77 1008 10 16.09344 0 0
10:35 pm 22:35 Clear 72 22 66 19 83 83 WNW 16 26 29.77 1008 10 16.09344 0 0
10:50 pm 22:50 Clear 72 22 64 18 78 78 NW 15 24 29.77 1008 10 16.09344 0 0
11:15 pm 23:15 Clear 70 21 64 18 83 83 WNW 13 20 29.8 1009 10 16.09344 0 0
11:35 pm 23:35 Clear 70 21 64 18 83 83 WNW 15 24 29.77 1008 10 16.09344 0 0
11:55 pm 23:55 Clear 70 21 63 17 78 78 W 7 11 29.77 1008 10 16.09344 0 0

Powered by AerisWeather